Date String (YYYY-MM-DD hh:mm:ss) UTC,Instrument flags,Ambient pressure (hPa),Sample flow (lpm),Bypass flow (lpm),Sample temperature (°C),Ambient temperature (°C),ASC tube jacket temperature (°C),LED temperature (°C),Box temperature (°C),Sample RH (%),Span deviation,Mass concentration (μg/m³),Mass concentration (μg/m³),Mass concentration (μg/m³)
DateTimeUTC,F1_M11,P_M11,Q1_M11,Q2_M11,T1_M11,T2_M11,T3_M11,T4_M11,T5_M11,U1_M11,ZSPAN_M11,X0_M11,X2_M11,X1_M11
2023-02-06 05:00:00,,0816.1,5.04,0.00,23.6,22.1,00.0,32.6,25.4,09.2,0000.0,0011.38,0005.82,0005.08
2023-02-06 05:01:00,,0816.1,4.96,0.00,23.6,22.1,00.0,32.6,25.3,09.1,0000.0,0010.55,0005.54,0004.78
2023-02-06 05:02:00,,0816.1,5.03,0.00,23.6,22.0,00.0,32.6,25.2,09.4,0000.0,0010.01,0005.24,0004.50
2023-02-06 05:03:00,,0816.1,4.96,0.00,23.6,22.0,00.0,32.5,25.3,09.2,0000.0,0009.72,0004.92,0004.16
2023-02-06 05:04:00,,0816.2,5.03,0.00,23.6,22.0,00.0,32.5,25.3,08.9,0000.0,0008.76,0004.59,0003.88
2023-02-06 05:05:00,,0816.2,4.96,0.00,23.6,22.0,00.0,32.5,25.2,09.0,0000.0,0007.95,0004.25,0003.60
2023-02-06 05:06:00,,0816.1,5.03,0.00,23.6,21.9,00.0,32.5,25.2,09.0,0000.0,0007.50,0003.90,0003.31
2023-02-06 05:07:00,,0816.1,4.97,0.00,23.5,21.9,00.0,32.5,25.2,09.0,0000.0,0007.22,0003.65,0003.10
2023-02-06 05:08:00,,0816.1,5.02,0.00,23.5,21.9,00.0,32.5,25.2,09.1,0000.0,0007.02,0003.49,0002.92
2023-02-06 05:09:00,,0816.1,5.01,0.00,23.5,21.9,00.0,32.5,25.2,09.0,0000.0,0006.94,0003.41,0002.80
2023-02-06 05:10:00,,0816.0,4.99,0.00,23.5,21.8,00.0,32.5,25.1,09.1,0000.0,0006.97,0003.37,0002.71
2023-02-06 05:11:00,,0816.0,5.03,0.00,23.5,21.8,00.0,32.4,25.1,09.0,0000.0,0006.79,0003.35,0002.71
2023-02-06 05:12:00,,0816.1,4.95,0.00,23.5,21.8,00.0,32.4,25.1,09.1,0000.0,0006.16,0003.31,0002.69
2023-02-06 05:13:00,,0816.1,5.04,0.00,23.5,21.8,00.0,32.4,25.1,09.1,0000.0,0005.92,0003.28,0002.69
2023-02-06 05:14:00,,0816.0,4.96,0.00,23.4,21.7,00.0,32.4,25.0,09.2,0000.0,0006.16,0003.30,0002.69
2023-02-06 05:15:00,,0816.0,5.04,0.00,23.4,21.7,00.0,32.4,25.0,08.8,0000.0,0006.42,0003.33,0002.70
2023-02-06 05:16:00,,0816.1,4.95,0.00,23.4,21.7,00.0,32.4,25.0,09.0,0000.0,0006.71,0003.37,0002.71
2023-02-06 05:17:00,,0816.1,5.04,0.00,23.4,21.6,00.0,32.4,24.9,09.1,0000.0,0006.79,0003.41,0002.72
2023-02-06 05:18:00,,0816.0,4.96,0.00,23.3,21.6,00.0,32.3,24.9,09.2,0000.0,0006.77,0003.44,0002.71
2023-02-06 05:19:00,,0816.1,5.04,0.00,23.3,21.6,00.0,32.3,25.0,09.1,0000.0,0006.67,0003.48,0002.72
2023-02-06 05:20:00,,0816.1,4.98,0.00,23.3,21.6,00.0,32.3,24.9,08.9,0000.0,0007.47,0003.50,0002.72
2023-02-06 05:21:00,,0816.0,5.00,0.00,23.3,21.6,00.0,32.3,24.9,08.8,0000.0,0007.75,0003.54,0002.74
2023-02-06 05:22:00,,0816.0,5.04,0.00,23.3,21.6,00.0,32.3,24.9,08.9,0000.0,0007.90,0003.55,0002.72
2023-02-06 05:23:00,,0816.0,4.96,0.00,23.3,21.6,00.0,32.3,24.9,09.0,0000.0,0008.03,0003.55,0002.70
2023-02-06 05:24:00,,0816.0,5.04,0.00,23.3,21.6,00.0,32.2,24.9,08.8,0000.0,0008.12,0003.57,0002.70
2023-02-06 05:25:00,,0815.9,4.98,0.00,23.2,21.5,00.0,32.2,24.9,08.9,0000.0,0007.96,0003.54,0002.70
2023-02-06 05:26:00,,0815.9,5.03,0.00,23.2,21.5,00.0,32.2,24.9,09.1,0000.0,0007.89,0003.54,0002.70
2023-02-06 05:27:00,,0815.9,4.98,0.00,23.2,21.5,00.0,32.2,24.9,08.9,0000.0,0007.79,0003.51,0002.69
2023-02-06 05:28:00,,0816.0,5.02,0.00,23.2,21.5,00.0,32.2,24.8,09.1,0000.0,0007.77,0003.50,0002.68
2023-02-06 05:29:00,,0816.0,4.98,0.00,23.2,21.5,00.0,32.2,24.7,09.1,0000.0,0007.89,0003.46,0002.67
2023-02-06 05:30:00,,0816.0,5.00,0.00,23.1,21.4,00.0,32.2,24.6,09.3,0000.0,0007.96,0003.43,0002.68
2023-02-06 05:31:00,,0816.0,5.04,0.00,23.1,21.4,00.0,32.1,24.7,09.1,0000.0,0007.75,0003.43,0002.67
2023-02-06 05:32:00,,0815.9,4.96,0.00,23.1,21.4,00.0,32.1,24.7,09.2,0000.0,0007.96,0003.39,0002.66
2023-02-06 05:33:00,,0815.9,5.04,0.00,23.1,21.4,00.0,32.1,24.7,09.2,0000.0,0008.46,0003.36,0002.66
2023-02-06 05:34:00,,0815.9,4.95,0.00,23.1,21.4,00.0,32.1,24.8,09.0,0000.0,0008.32,0003.37,0002.69
2023-02-06 05:35:00,,0815.9,5.05,0.00,23.1,21.3,00.0,32.1,24.7,09.4,0000.0,0008.37,0003.40,0002.68
2023-02-06 05:36:00,,0815.9,4.99,0.00,23.0,21.3,00.0,32.1,24.6,09.4,0000.0,0008.36,0003.39,0002.66
2023-02-06 05:37:00,,0816.0,4.99,0.00,23.0,21.3,00.0,32.0,24.6,09.3,0000.0,0008.37,0003.37,0002.63
2023-02-06 05:38:00,,0816.0,5.03,0.00,23.0,21.3,00.0,32.0,24.5,09.4,0000.0,0008.39,0003.37,0002.61
2023-02-06 05:39:00,,0816.0,4.96,0.00,23.0,21.3,00.0,32.0,24.5,09.4,0000.0,0008.37,0003.35,0002.59
2023-02-06 05:40:00,,0815.9,5.03,0.00,23.0,21.3,00.0,32.0,24.6,09.5,0000.0,0008.41,0003.34,0002.57
2023-02-06 05:41:00,,0816.0,5.01,0.00,23.0,21.2,00.0,32.0,24.6,09.4,0000.0,0008.33,0003.31,0002.52
2023-02-06 05:42:00,,0816.0,4.98,0.00,22.9,21.2,00.0,32.0,24.5,09.6,0000.0,0008.18,0003.25,0002.47
2023-02-06 05:43:00,,0816.1,5.04,0.00,22.9,21.2,00.0,32.0,24.5,09.5,0000.0,0007.47,0003.24,0002.43
2023-02-06 05:44:00,,0816.0,4.95,0.00,22.9,21.2,00.0,31.9,24.5,09.7,0000.0,0006.06,0003.20,0002.40
2023-02-06 05:45:00,,0816.0,5.04,0.00,22.9,21.1,00.0,31.9,24.5,09.9,0000.0,0006.12,0003.20,0002.35
2023-02-06 05:46:00,,0815.9,4.95,0.00,22.9,21.1,00.0,31.9,24.4,10.2,0000.0,0005.98,0003.16,0002.31
2023-02-06 05:47:00,,0816.0,5.03,0.00,22.8,21.1,00.0,31.9,24.4,10.1,0000.0,0005.74,0003.09,0002.27
2023-02-06 05:48:00,,0816.0,4.98,0.00,22.8,21.1,00.0,31.9,24.4,10.3,0000.0,0006.30,0003.02,0002.23
2023-02-06 05:49:00,,0816.0,5.01,0.00,22.8,21.1,00.0,31.8,24.4,10.4,0000.0,0006.49,0003.00,0002.20
2023-02-06 05:50:00,,0816.0,4.99,0.00,22.8,21.0,00.0,31.8,24.4,10.4,0000.0,0006.35,0002.94,0002.14
2023-02-06 05:51:00,,0816.0,5.00,0.00,22.8,21.0,00.0,31.8,24.3,10.7,0000.0,0006.24,0002.93,0002.09
2023-02-06 05:52:00,,0816.0,5.03,0.00,22.8,21.0,00.0,31.8,24.4,10.7,0000.0,0005.91,0002.93,0002.06
2023-02-06 05:53:00,,0816.0,4.96,0.00,22.7,21.0,00.0,31.8,24.3,10.9,0000.0,0006.15,0002.92,0002.02
2023-02-06 05:54:00,,0815.9,5.04,0.00,22.7,20.9,00.0,31.7,24.3,11.0,0000.0,0007.03,0002.83,0001.98
2023-02-06 05:55:00,,0816.0,4.96,0.00,22.7,20.9,00.0,31.7,24.3,10.9,0000.0,0006.95,0002.79,0001.93
2023-02-06 05:56:00,,0816.0,5.05,0.00,22.7,20.9,00.0,31.7,24.2,10.9,0000.0,0006.60,0002.65,0001.89
2023-02-06 05:57:00,,0816.0,4.95,0.00,22.6,20.9,00.0,31.7,24.1,11.0,0000.0,0006.40,0002.56,0001.85
2023-02-06 05:58:00,,0816.0,5.04,0.00,22.6,20.8,00.0,31.7,24.1,11.1,0000.0,0006.56,0002.63,0001.84
2023-02-06 05:59:00,,0816.0,4.99,0.00,22.6,20.8,00.0,31.6,24.1,11.3,0000.0,0005.78,0002.61,0001.80
